Regional Weather Roundup
Issued by NWS Binghamton, NY

Home | Current Version | Previous Version | Text Only | Print | Product List | Glossary On
Versions: 1 2 3 4 5 6 7 8 9 10 11 12 13 14 15 16 17 18 19 20 21 22 23 24 25 26 27 28 29 30 31 32 33 34 35 36 37 38 39 40 41 42 43 44 45 46 47 48 49 50
000
ASUS41 KBGM 041210
RWRBGM
RWRBGM
BINGHAMTON REGIONAL WEATHER ROUNDUP
NATIONAL WEATHER SERVICE BINGHAMTON NY
800 AM EDT FRI SEP 04 2015

Note: "fair" indicates few or no clouds below 12,000 feet with no
significant weather and/or obstructions to visibility.

* = Station(s) that does not report precipitation, such as rain,
snow, etc, also no thunder or fog.

!NYZ009-015>018-022>025-036-037-044>046-055>057-062-041300
...CENTRAL NEW YORK...

CITY           SKY/WX    TMP DP  RH WIND       PRES   REMARKS
BINGHAMTON     MOSUNNY   65  63  93 E6        30.11R
CORTLAND       CLOUDY    64  64 100 E3        30.12R FOG
DANSVILLE      CLOUDY    65  64  97 SE5       30.10R FOG
ELMIRA         CLOUDY    70  69  97 CALM      30.08R FOG
ITHACA         FOG       65  65 100 CALM      30.11R VSB 1/8
HORNELL        FOG       66  64  94 CALM        N/A  VSB 1/4
MONTICELLO     SUNNY     64  64 100 E5        30.11R
NORWICH        CLOUDY    63  63 100 N6        30.12R FOG
ONEONTA        SUNNY     64  52  63 E5        30.13R
PENN YAN       FOG       68  67  96 CALM      30.10R VSB 1/4
ROME           SUNNY     63  60  90 E5        30.11R
SIDNEY         CLOUDY    63  63 100 CALM      30.10S
SYRACUSE       MOSUNNY   64  64 100 E6        30.08R
$$

!PAZ038>040-043-044-047-048-072-041300
...NORTHEAST PENNSYLVANIA...

CITY           SKY/WX    TMP DP  RH WIND       PRES   REMARKS
HAZLETON       FOG       64  64 100 CALM      30.11R VSB 1
SCRANTON       SUNNY     69  65  86 SE5       30.07R FOG
TOWANDA*       PTSUNNY   70  68  94 MISG      30.09R
$$
&&
KEY
WCI = WIND CHILL INDEX
VSB = VISIBILITY
HX  = HEAT INDEX
$$


USA.gov is the U.S. government's official web portal to all federal, state and local government web resources and services.